Home > Time Zones > World Clock > Weather > U.S.A. > Erie > Past weeks

Flag for U.S.A. Weather past 2 weeks in Erie, Pennsylvania, U.S.A.

Now
53 °F

Partly sunny.


Feels Like: 48 °F
Forecast: 43 / 54 °F
Wind: 18 mph from West

Location: Erie International Airport

Current Time: Apr 21, 2015 at 4:17:13 PM

Latest Report: Apr 21, 2015 at 3:51 PM


Visibility: 10 mi

Pressure: 29.64 "Hg

Humidity: 34%

Dew point: 25 °F

Location of ErieLocation

Historic Weather in Erie — Graph

°F

Erie temperature yesterday

Maximum temperature yesterday: 69 °F (at 1:51 PM)
Minimum temperature yesterday: 47 °F (at 11:51 PM)
Average temperature yesterday: 56 °F

Past Weeks' High & Low Weather Summary

 TemperatureHumidityPressure
High79 °F (Apr 13, 12:51 PM)97% (Apr 9, 12:51 AM)30.39 "Hg (Apr 9, 12:51 AM)
Low34 °F (Apr 9, 12:51 AM)18% (Apr 16, 11:51 AM)29.36 "Hg (Apr 20, 1:51 PM)
Average51 °F64%30.03 "Hg
* Reported Apr 6 2:51 PM — Apr 21 2:51 PM, Erie, Weather by CustomWeather, © 2015

Note: Actual official high and low records may vary slightly from our data, if they occured in-between our weather recording intervals... More about our weather records

Advertising

Erie weather history for previous 24 hours

 ConditionsComfort  
Time TempWeatherWind HumidityBarometerVisibility
2:51 PM
Tue, Apr 21
52 °FBroken clouds.16 mph38%29.64 "Hg10 mi
1:51 PM50 °FPartly sunny.17 mph43%29.63 "Hg10 mi
12:51 PM49 °FMostly cloudy.18 mph46%29.64 "Hg10 mi
11:51 AM48 °FLight rain. Cloudy.15 mph52%29.64 "Hg10 mi
10:51 AM51 °FBroken clouds.17 mph44%29.63 "Hg10 mi
9:51 AM51 °FSunny.22 mph48%29.65 "Hg10 mi
8:51 AM47 °FScattered clouds.15 mph59%29.66 "Hg10 mi
7:51 AM44 °FPassing clouds.16 mph60%29.66 "Hg10 mi
6:51 AM43 °FPassing clouds.12 mph62%29.66 "Hg10 mi
5:51 AM45 °FOvercast.14 mph58%29.64 "Hg10 mi
4:51 AM46 °FLight rain. Mostly cloudy.14 mph66%29.63 "Hg10 mi
3:51 AM45 °FMostly cloudy.7 mph74%29.62 "Hg10 mi
2:51 AM46 °FMostly cloudy.8 mph71%29.63 "Hg10 mi
1:51 AM45 °FMostly cloudy.10 mph76%29.62 "Hg10 mi
12:51 AM47 °FPartly cloudy.15 mph74%29.61 "Hg10 mi
11:51 PM
Mon, Apr 20
47 °FOvercast.21 mph74%29.60 "Hg10 mi
10:51 PM48 °FPassing clouds.21 mph74%29.57 "Hg10 mi
9:51 PM48 °FPassing clouds.21 mph74%29.56 "Hg10 mi
8:51 PM49 °FMostly cloudy.14 mph74%29.54 "Hg10 mi
7:51 PM50 °FCloudy.12 mph77%29.52 "Hg10 mi
6:51 PM54 °FMostly cloudy.14 mph77%29.49 "Hg10 mi
5:51 PM56 °FCloudy.16 mph77%29.46 "Hg10 mi
4:51 PM55 °FMostly cloudy.25 mph72%29.42 "Hg10 mi
Weather by CustomWeather, © 2015

See weather overviewHow to use our weather pages